Terminal Aerodrome Forecast
Issued by NWS Shreveport, LA

Home | Current Version | Previous Version | Text Only | Print | Product List | Glossary On
Versions: 1 2 3 4 5 6 7 8 9 10 11 12
000
FTUS44 KSHV 301140
TAFTXK
TAF
KTXK 301140Z 3012/3112 16006KT P6SM SCT250
     FM301800 16006KT P6SM SCT120 BKN250
     FM310600 19004KT P6SM SCT250=

USA.gov is the U.S. government's official web portal to all federal, state and local government web resources and services.